Delta Virtual Airport Information Service

Dubai International Airport

ICAO: OMDB Country: United Arab Emirates
Latitude: 25.2528 Longitude: 55.3644
Latest Arrival : UAE2606 (A) (FACT-OMDB) Latest Departure : UAE229 (OMDB-KSEA)


WX CaptureLIVE
Data provided by noaa.gov | Fetched at 09:17:13

METAR : OMDB 041400Z 33009KT 8000 NSC 37/28 Q0991 NOSIG

TAF : OMDB 041056Z 0412/0518 29013KT 8000 NSC BECMG 0416/0418 19005KT PROB30 0500/0504 3000 BR BKN005 BECMG 0506/0508 32012KT BECMG 0516/0518 12005KT


Runway Data for OMDB
Data provided by openaviationdata.com

Runway ID Mag Var Hdg Length Elevation Surface ILS Freq ILS Id ILS Slope
12L 1 119° 13143 ft 34 ft Asphalt 110.1 IDBL 3
12R 1 119° 14606 ft 34 ft Asphalt 109.5 IDBE 3
30L 1 299° 14606 ft 34 ft Asphalt 111.3 IDBW 3
30R 1 299° 13143 ft 34 ft Asphalt 110.9 IDBR 3

Dubai International Airport, United Arab Emirates
Use only for reference purposes



Not for navigational purposes.